Reading, PA

3:07 AM EDT on October 15, 2019 (GMT -0400)
Reading Regional-Spaatz

Weather History for KRDG - August, 2019

Change the Weather History Date:

Thursday, August 1, 2019

  Actual Average Record
Temperature  
Mean Temperature 77 °F 74 °F  
Max Temperature 85 °F 85 °F 98 °F (2002)
Min Temperature 68 °F 64 °F 52 °F (1903)
Degree Days  
Heating Degree Days 0 0  
Month to date heating degree days 0 0  
Since 1 June heating degree days 16 25  
Since 1 July heating degree days 0 1  
Cooling Degree Days 12 9  
Month to date cooling degree days 12 9  
Year to date cooling degree days 750 561  
Since 1 June cooling degree days 645 501  
Growing Degree Days 26 (Base 50)    
Moisture  
Dew Point 70 °F    
Average Humidity 81    
Maximum Humidity 100    
Minimum Humidity 62    
Precipitation  
Precipitation 0.16 in 0.13 in 3.70 in (1985)
Month to date precipitation 0.16 0.13  
Year to date precipitation 38.45 25.45  
Sea Level Pressure  
Sea Level Pressure 30.08 in    
Wind  
Wind Speed 3 mph (NE)    
Max Wind Speed 29 mph    
Max Gust Speed 33 mph    
Visibility 9 miles    
Events Rain , Thunderstorm    
T = Trace of Precipitation, MM = Missing Value Source: NWS Daily Summary

Daily Weather History Graph

Daily Weather History Graph

Search for Another Location

Airport or City:

Astronomy

Aug. 01, 2019 Rise Set
Actual Time 6:01 AM EDT 8:18 PM EDT
Civil Twilight 5:30 AM EDT 8:49 PM EDT
Nautical Twilight 4:52 AM EDT 9:26 PM EDT
Astronomical Twilight 4:11 AM EDT 10:07 PM EDT
Moon 6:22 AM EDT (8/1) 9:04 PM EDT (8/1)
Length of Visible Light 15h 18m
Length of Day
14h 17m
New Moon, 0% of the Moon is Illuminated
Aug 1
New Moon
Aug 7
First Quarter
Aug 15
Full
Aug 23
Last Quarter
Aug 30
New

Hourly Weather History & Observations

Time (EDT) Temp. Heat Index Dew Point Humidity Pressure Visibility Wind Dir Wind Speed Gust Speed Precip Events Conditions
12:54 AM 72.0 °F - 70.0 °F 93% 30.06 in 10.0 mi North 4.6 mph - N/A   Mostly Cloudy
1:54 AM 71.1 °F - 71.1 °F 100% 30.06 in 10.0 mi Calm Calm - N/A   Clear
2:16 AM 71.1 °F - 70.0 °F 96% 30.05 in 10.0 mi South 4.6 mph - N/A   Mostly Cloudy
2:54 AM 71.1 °F - 71.1 °F 100% 30.05 in 10.0 mi Calm Calm - N/A   Overcast
3:25 AM 71.1 °F - 70.0 °F 96% 30.04 in 10.0 mi NW 3.5 mph - N/A   Mostly Cloudy
3:54 AM 70.0 °F - 70.0 °F 100% 30.06 in 10.0 mi North 5.8 mph - N/A   Clear
4:54 AM 69.1 °F - 69.1 °F 100% 30.06 in 10.0 mi NNW 4.6 mph - N/A   Clear
5:54 AM 69.1 °F - 69.1 °F 100% 30.06 in 10.0 mi Calm Calm - N/A   Clear
6:54 AM 69.1 °F - 69.1 °F 100% 30.07 in 10.0 mi Calm Calm - N/A   Clear
7:54 AM 72.0 °F - 70.0 °F 93% 30.08 in 10.0 mi Calm Calm - N/A   Clear
8:54 AM 75.9 °F - 70.0 °F 82% 30.09 in 10.0 mi NNW 4.6 mph - N/A   Clear
9:54 AM 78.1 °F - 70.0 °F 76% 30.10 in 10.0 mi North 6.9 mph - N/A   Clear
10:54 AM 82.0 °F 85.9 °F 70.0 °F 67% 30.11 in 10.0 mi Variable 6.9 mph - N/A   Scattered Clouds
11:54 AM 80.1 °F 82.7 °F 68.0 °F 67% 30.11 in 10.0 mi ENE 4.6 mph - 0.00 in Rain Light Rain
12:54 PM 84.9 °F 88.8 °F 69.1 °F 59% 30.10 in 10.0 mi ESE 5.8 mph - 0.00 in   Scattered Clouds
1:31 PM 82.0 °F 84.5 °F 66.9 °F 60% 30.09 in 10.0 mi ENE 8.1 mph - N/A Thunderstorm Mostly Cloudy
1:54 PM 81.0 °F 83.8 °F 68.0 °F 65% 30.10 in 5.0 mi NE 4.6 mph - 0.01 in Rain , Thunderstorm Thunderstorms and Rain
2:01 PM 81.0 °F 83.3 °F 66.9 °F 62% 30.10 in 5.0 mi Calm Calm - 0.01 in Rain , Thunderstorm Thunderstorms and Rain
2:25 PM 72.0 °F - 70.0 °F 93% 30.11 in 5.0 mi West 15.0 mph 23.0 mph 0.08 in Rain , Thunderstorm Thunderstorms and Rain
2:44 PM 72.0 °F - 71.1 °F 97% 30.10 in 5.0 mi Variable 4.6 mph - 0.14 in Rain Rain
2:54 PM 72.0 °F - 72.0 °F 100% 30.11 in 10.0 mi SSE 4.6 mph - 0.15 in Rain Light Rain
3:54 PM 75.9 °F - 73.0 °F 91% 30.09 in 10.0 mi Variable 3.5 mph - 0.00 in   Scattered Clouds
4:54 PM 82.0 °F 86.7 °F 72.0 °F 71% 30.07 in 10.0 mi Calm Calm - N/A   Scattered Clouds
5:54 PM 82.9 °F 87.5 °F 71.1 °F 67% 30.06 in 10.0 mi Calm Calm - N/A   Clear
6:54 PM 82.9 °F 85.8 °F 68.0 °F 60% 30.06 in 10.0 mi East 3.5 mph - N/A   Clear
7:54 PM 80.1 °F 82.3 °F 66.9 °F 64% 30.07 in 10.0 mi East 3.5 mph - N/A   Clear
8:54 PM 77.0 °F - 71.1 °F 82% 30.08 in 10.0 mi Calm Calm - N/A   Clear
9:54 PM 73.9 °F - 71.1 °F 91% 30.09 in 10.0 mi Calm Calm - N/A   Clear
10:54 PM 72.0 °F - 70.0 °F 93% 30.10 in 10.0 mi Calm Calm - N/A   Clear
11:54 PM 72.0 °F - 72.0 °F 100% 30.11 in 10.0 mi South 3.5 mph - N/A   Clear